Wind_Speed
31 31 31 32 33 34 34 33 33 32 31 30 30 29 28 27 26 25 24 24 24 24 23 23 24 24 24 24 25 24 24 24 24 26 28 29 31 32 33 35 36 36 36 37 38 39 38 36 34 35 35 34 34 35 35 35 35 35 35 33 32 30 29 28 28 28 27 27 27 29 29 26 23 25 26 28 31 34 36 38 38 36 34 34 35 36 37 38
33 32 32 33 34 35 35 35 34 33 33 32 31 31 30 29 28 27 26 26 25 25 25 24 24 24 24 24 24 24 24 23 24 25 27 29 30 32 33 35 37 37 37 37 38 39 38 35 35 35 35 34 33 33 34 34 33 33 33 32 31 30 30 29 29 29 28 28 28 30 30 27 24 24 26 29 32 35 37 38 37 35 35 37 38 39 39 38
34 34 34 34 35 35 36 36 35 35 34 34 33 33 32 31 30 29 28 27 27 26 26 25 25 24 24 24 24 23 23 23 24 25 27 29 30 31 33 35 37 37 37 37 38 39 37 35 35 36 36 35 34 34 33 32 31 30 30 29 29 29 30 30 29 28 28 29 29 30 31 29 26 25 27 30 34 37 37 36 35 36 37 38 39 39 38 37
36 36 35 35 36 36 37 37 37 36 36 36 35 34 34 33 32 31 30 29 28 28 27 27 25 24 24 24 24 23 23 24 24 25 27 29 30 32 33 34 36 37 37 37 37 38 36 33 33 34 35 35 35 35 34 33 31 29 27 27 27 27 28 28 28 27 27 28 29 30 31 31 29 27 29 32 35 36 35 34 35 37 38 38 38 37 37 37
38 38 37 37 37 38 38 38 38 38 38 37 37 36 36 35 34 33 32 31 30 29 29 28 26 25 25 24 24 24 24 24 25 26 27 29 31 32 33 34 36 38 38 37 37 37 36 32 30 31 33 33 33 34 34 33 32 29 26 25 25 25 24 25 25 26 26 27 28 30 32 32 31 30 31 33 34 33 34 35 36 37 38 38 38 37 38 38
40 40 39 39 39 39 40 39 39 39 39 39 39 38 37 37 36 35 34 33 32 31 30 29 27 26 25 25 25 25 25 25 26 27 28 30 31 32 34 34 36 38 39 37 37 37 37 33 29 29 32 32 31 32 33 32 32 31 29 27 26 25 24 23 23 24 24 25 26 28 31 32 32 32 32 33 32 33 34 35 36 37 38 38 37 38 39 40
41 42 42 41 41 41 41 41 41 41 41 41 41 40 39 38 38 37 36 35 34 32 31 29 28 27 26 26 26 26 26 26 27 28 29 30 31 33 35 36 37 39 39 38 38 38 38 36 31 29 30 31 30 30 31 31 30 30 29 28 27 27 26 25 24 23 22 22 23 25 27 30 31 31 32 33 33 34 34 35 36 36 37 38 38 39 40 42
42 43 44 43 43 43 43 43 43 43 43 43 42 42 41 40 40 39 37 36 35 34 32 30 29 28 27 27 27 27 27 27 28 29 30 31 32 34 36 37 38 38 39 40 39 39 39 39 35 31 30 31 31 29 28 29 29 28 28 28 27 27 26 26 25 24 22 21 21 22 24 27 30 31 34 35 35 34 35 36 36 37 39 40 40 42 44 45
43 44 45 45 45 45 45 45 45 45 45 45 44 44 43 42 41 40 39 38 37 35 34 32 30 29 29 28 28 28 28 28 29 30 31 31 32 35 37 38 38 38 39 40 40 40 40 40 38 35 32 31 31 30 28 27 28 27 27 26 25 25 25 25 25 25 24 23 22 23 25 27 30 33 35 36 36 36 37 37 37 40 42 43 43 44 46 47
44 45 46 46 46 46 46 46 47 47 46 46 46 45 44 44 43 42 41 39 38 37 35 33 31 30 30 30 29 30 30 30 30 31 32 32 33 35 38 39 38 38 39 41 41 40 40 40 39 37 35 32 31 30 29 28 27 27 27 27 26 25 25 25 24 24 25 25 25 26 27 29 31 33 35 37 38 38 39 39 41 43 44 44 44 46 47 47
45 46 46 47 47 48 48 48 48 48 48 48 48 47 46 45 45 44 42 41 39 38 36 34 32 31 31 31 31 31 31 31 32 32 33 33 34 36 38 39 38 38 39 40 41 41 41 41 39 38 37 35 32 31 30 29 28 28 27 27 27 26 27 26 26 26 27 27 27 27 29 31 31 33 35 38 39 40 41 42 44 45 46 46 47 48 48 47
45 46 47 47 48 48 48 49 49 49 49 49 49 48 47 46 45 45 44 42 40 38 37 36 34 32 32 31 31 32 33 33 33 33 34 35 35 37 38 40 39 39 40 40 41 42 42 41 38 37 37 36 34 32 30 30 30 30 29 29 29 28 29 29 29 29 29 28 28 28 31 32 31 33 35 37 40 41 42 44 45 47 47 48 49 50 49 48
45 46 47 48 48 48 49 49 50 50 50 50 50 49 48 47 46 45 44 43 41 39 37 36 35 34 33 32 32 33 34 35 34 34 35 35 36 37 39 41 41 40 40 40 41 41 41 40 37 36 36 36 35 34 32 31 31 32 31 31 31 31 32 32 32 32 32 32 31 29 32 34 32 33 35 38 41 43 44 45 46 47 49 50 51 50 49 50
45 46 48 48 48 48 48 49 50 50 51 50 50 50 49 47 46 45 44 43 42 40 38 37 36 36 35 34 33 33 35 36 35 35 35 36 36 37 40 42 42 42 41 40 41 41 40 38 35 35 36 35 35 34 33 32 32 33 33 32 32 33 34 35 36 37 37 37 37 35 36 39 37 37 39 41 44 45 45 46 47 48 48 49 49 50 50 53
45 46 47 48 49 49 48 49 50 51 51 51 50 50 49 47 46 45 44 44 43 41 39 38 37 37 37 36 35 34 35 36 37 36 36 36 36 37 40 42 43 43 42 41 42 41 41 38 35 34 35 34 34 33 33 33 32 32 34 34 34 34 35 36 38 39 40 41 42 40 40 42 42 42 44 45 47 47 46 47 46 46 47 48 49 51 53 55
46 46 47 48 49 50 49 49 50 51 51 52 51 49 49 48 46 45 44 44 43 42 40 39 38 38 39 39 36 35 36 37 38 38 38 37 37 38 40 43 43 43 42 42 43 42 41 38 36 35 34 34 33 33 33 33 33 32 33 33 33 33 33 35 36 37 39 40 42 42 41 43 44 45 47 48 48 47 46 45 45 46 49 51 51 52 54 56
47 47 47 48 49 50 51 50 50 51 51 52 51 50 49 48 46 45 44 44 42 41 41 40 39 39 41 41 39 38 37 39 40 40 39 38 38 39 41 43 44 43 42 43 43 43 42 39 38 37 35 34 34 33 33 33 33 33 33 32 32 32 32 33 34 35 36 37 39 40 40 42 44 45 46 46 46 45 44 45 46 49 52 53 53 54 56 58
47 48 48 48 49 50 51 51 51 51 51 52 51 50 49 48 47 45 44 44 42 41 41 41 41 41 43 42 42 41 39 40 42 42 41 41 40 41 42 43 44 44 43 43 44 44 43 41 39 38 37 36 35 34 33 33 32 33 33 32 32 32 33 32 33 34 35 36 37 37 38 40 42 42 43 43 44 45 46 48 49 52 54 54 55 57 59 61
46 47 48 48 48 49 50 51 50 51 51 51 52 51 49 49 48 46 45 44 42 41 41 42 42 42 44 45 44 43 42 42 43 44 44 43 42 42 43 44 44 44 43 44 45 45 44 43 41 40 39 38 37 36 35 34 33 33 33 32 31 32 34 34 32 33 34 35 37 37 37 40 42 42 43 44 46 49 50 50 52 54 54 54 57 60 61 62
45 46 47 48 48 48 49 50 50 50 51 51 51 51 51 49 48 46 46 45 43 42 42 43 42 42 44 46 46 46 45 44 45 46 46 45 44 44 45 45 45 45 44 46 46 46 45 44 43 41 41 39 38 38 37 37 36 35 34 34 33 32 35 36 35 35 35 35 36 37 37 41 45 46 47 48 49 51 51 51 52 52 52 56 60 61 62 63
45 46 46 46 47 48 48 50 50 50 51 51 51 51 51 50 48 46 46 46 44 43 43 43 42 44 45 46 48 48 48 47 47 48 49 47 46 46 46 46 46 46 45 47 48 47 46 45 44 42 42 41 40 39 39 39 40 39 37 35 35 34 35 37 37 36 37 37 37 37 38 42 47 48 49 49 49 49 50 51 51 52 55 59 60 60 61 63
44 45 45 46 46 47 48 49 50 50 50 51 51 51 51 50 49 47 46 47 45 43 44 44 43 45 46 48 49 50 50 50 48 50 51 49 48 48 47 47 47 47 47 49 49 48 48 46 45 43 43 43 42 41 40 41 43 42 40 37 37 36 35 37 38 38 39 39 39 38 37 41 46 49 50 50 49 50 49 50 52 55 58 59 59 60 62 64
44 44 45 46 46 47 47 48 49 49 50 51 51 51 51 50 49 47 46 47 47 46 45 44 44 46 48 49 50 51 51 51 50 52 52 51 50 49 48 48 47 47 49 50 50 49 49 47 46 45 44 44 43 42 41 42 44 44 41 39 38 38 37 36 37 38 40 40 39 38 35 38 45 50 53 53 51 52 51 52 55 57 58 58 59 61 64 67
44 45 45 46 46 47 47 48 48 48 49 49 51 51 51 50 49 48 47 45 47 49 48 46 46 48 50 50 51 51 51 52 52 53 53 52 51 50 48 48 47 48 50 51 51 50 50 48 46 46 45 45 45 44 42 42 44 45 43 40 38 40 40 38 37 37 40 41 43 42 34 32 42 51 56 57 56 54 54 56 59 59 59 58 61 64 67 70
44 45 46 47 47 47 48 48 48 48 48 48 50 51 50 50 49 48 48 45 45 50 51 49 50 52 53 53 53 53 52 52 52 53 53 52 51 50 49 49 48 49 50 51 51 51 51 49 48 46 46 47 47 47 45 43 44 45 45 43 40 41 42 42 41 39 40 42 47 51 39 29 38 51 57 58 58 56 57 60 60 60 59 59 63 67 69 71
46 44 45 47 47 48 48 48 49 49 47 48 50 50 50 50 49 48 48 45 43 50 53 51 54 56 56 56 55 53 53 53 52 52 53 52 51 51 50 50 49 49 51 51 51 52 52 50 50 49 48 49 49 49 48 46 45 45 46 46 44 46 47 47 46 45 45 43 48 58 51 36 37 49 59 60 58 59 61 61 60 60 60 62 66 68 70 72
49 47 45 46 47 47 47 48 50 49 48 49 49 50 50 50 49 49 49 45 42 49 54 54 56 57 56 57 56 54 53 53 53 53 53 53 52 52 52 51 50 50 52 51 51 53 53 51 52 51 51 51 51 52 51 50 49 48 49 49 50 51 52 52 51 51 50 45 50 61 59 46 39 47 61 63 60 61 62 62 61 61 63 66 69 70 72 75
52 50 48 48 47 47 47 49 50 50 50 50 50 51 50 50 50 49 49 44 40 46 54 56 57 57 57 56 55 54 54 54 54 53 53 53 53 53 53 52 52 52 52 52 52 54 54 53 54 54 54 54 53 54 54 54 53 53 53 54 55 55 56 57 55 56 54 48 52 61 62 55 44 49 63 64 61 63 63 63 62 63 66 69 70 72 74 77
54 52 52 51 50 49 49 49 50 51 52 52 52 52 51 51 50 49 49 44 40 46 54 57 57 57 57 56 55 55 54 55 55 53 53 53 53 54 54 54 54 53 54 54 54 55 56 55 56 56 56 56 56 56 57 57 57 57 57 58 59 59 60 61 59 59 58 52 55 62 64 61 51 53 65 66 64 67 65 65 65 66 68 69 71 74 76 78
57 56 55 54 53 53 52 50 50 51 52 53 53 53 52 51 50 50 48 44 45 50 53 56 57 57 57 56 55 55 54 55 54 54 53 53 53 54 56 56 56 56 57 57 56 57 57 58 58 58 58 58 58 59 60 60 60 61 62 62 63 63 64 64 62 63 61 56 59 62 64 66 58 57 65 67 68 70 69 69 69 69 69 70 74 76 77 80
60 59 58 57 57 56 55 54 53 53 54 54 54 54 53 52 51 50 46 46 51 53 53 56 57 57 57 56 55 54 54 54 54 54 54 54 54 56 59 60 60 59 58 60 60 59 59 60 60 60 61 60 60 61 62 63 64 65 66 67 67 67 68 67 65 66 64 60 62 63 64 67 63 62 66 67 69 71 71 71 70 69 70 73 75 77 80 83
64 62 61 60 60 59 59 57 57 57 57 56 56 55 54 52 50 47 47 52 55 53 54 57 56 55 56 54 54 54 54 54 55 56 55 56 57 58 61 64 64 63 61 62 64 62 61 61 62 62 62 62 63 64 65 66 67 69 70 72 72 72 73 70 69 69 66 64 65 65 66 66 65 66 67 67 69 70 71 70 70 71 74 75 77 80 83 85
66 66 65 64 63 63 63 61 60 60 60 59 59 57 56 53 48 47 51 56 58 56 57 59 57 57 56 54 55 55 55 56 57 58 58 58 59 60 63 66 68 68 66 65 65 64 62 62 64 65 64 64 66 67 68 69 71 73 74 76 77 79 79 75 73 73 69 68 67 68 68 66 66 67 66 67 70 70 71 71 73 76 77 79 81 83 85 85
69 68 68 67 67 67 67 66 64 63 63 62 61 60 58 53 49 51 55 59 61 61 60 61 60 60 58 57 57 57 58 59 59 61 61 61 61 62 65 68 71 72 72 70 68 66 63 61 64 66 65 67 69 70 71 72 74 76 76 78 80 83 84 81 79 77 75 72 69 69 71 68 67 68 66 68 71 72 74 76 77 79 80 82 83 84 86 88
72 71 70 70 70 71 71 71 69 68 67 65 64 62 58 54 53 56 58 60 63 63 62 63 62 62 61 60 60 60 62 63 62 63 64 64 64 64 66 70 73 75 76 76 74 70 66 63 64 67 68 69 71 72 73 74 77 77 77 80 82 84 86 86 84 82 82 79 72 69 70 68 68 67 65 69 74 77 79 80 80 81 81 82 84 85 88 90
74 74 73 72 73 75 76 74 73 73 71 70 68 62 57 56 58 60 61 63 65 65 65 64 63 63 63 63 64 64 65 65 65 66 67 67 66 66 68 73 75 77 79 79 78 75 70 66 66 68 69 71 72 73 74 77 79 79 80 83 84 86 88 89 87 86 88 87 78 72 70 66 65 63 65 73 78 79 80 81 82 82 81 81 84 87 89 91
75 75 75 75 76 79 78 77 77 76 75 74 70 62 60 61 62 64 66 67 69 69 69 68 66 67 67 66 67 67 69 69 68 69 69 69 68 67 71 75 77 79 81 82 81 79 75 70 68 70 71 72 73 74 77 80 81 81 84 86 86 88 89 90 91 90 92 91 83 76 71 66 65 65 68 76 79 79 82 82 82 81 81 83 86 89 91 93
75 75 74 75 80 83 83 81 80 79 78 76 69 64 64 65 65 68 71 73 73 73 72 71 70 70 70 69 69 71 72 72 71 72 71 71 70 69 73 77 79 81 83 85 84 82 80 75 70 71 73 73 74 77 80 82 82 84 85 86 87 89 90 92 95 94 94 94 88 80 73 68 67 68 71 77 81 82 85 84 83 83 85 87 89 91 94 96
75 75 73 75 81 86 86 86 84 83 81 75 70 68 68 68 69 72 74 75 76 75 74 73 73 73 72 72 73 73 74 74 74 75 75 74 73 73 76 80 82 83 85 87 86 85 84 80 74 72 74 75 76 80 82 83 85 86 86 87 87 89 92 93 95 95 95 95 91 86 80 70 65 69 76 82 84 85 87 85 84 86 87 89 91 94 97 98
76 75 73 75 82 87 88 88 86 84 80 75 72 71 70 71 72 73 75 77 77 77 75 75 75 75 74 74 75 75 77 78 77 78 78 77 77 78 81 83 85 87 88 88 88 87 87 85 78 74 74 76 77 81 82 83 86 87 87 87 87 90 92 93 94 94 94 94 91 92 88 71 65 75 82 83 84 86 88 86 85 88 89 91 95 97 99 100
79 77 72 75 83 88 90 88 82 79 77 73 71 73 74 76 76 75 77 79 79 79 78 77 77 77 77 77 78 79 81 81 80 81 81 80 82 83 85 87 87 89 90 90 89 89 89 87 82 78 77 77 78 80 81 83 85 87 86 86 87 90 92 94 94 91 92 92 89 96 94 73 69 82 84 82 85 87 88 88 89 91 92 95 99 100 101 104
84 80 75 77 83 87 90 87 79 76 73 69 70 75 78 79 78 78 80 82 83 83 82 81 80 80 81 81 83 84 85 85 84 84 84 83 84 86 88 89 89 89 90 89 88 89 90 88 84 80 79 79 78 79 80 83 85 86 85 85 87 90 91 94 93 90 91 92 92 101 96 76 76 87 84 83 88 90 91 93 93 95 96 99 102 102 104 107
88 85 83 83 84 86 88 85 79 76 73 70 73 77 77 77 76 77 80 84 86 86 87 86 84 84 85 86 87 88 89 89 87 87 87 87 87 88 89 88 88 88 88 87 87 88 88 87 85 82 80 78 77 77 80 84 86 85 83 84 87 89 91 93 92 93 93 92 97 105 96 82 84 89 84 86 92 95 97 97 96 98 100 103 104 104 107 109
93 91 89 88 88 89 88 84 80 79 76 76 76 76 76 76 75 75 79 83 86 87 88 88 86 87 88 89 90 90 90 91 90 89 90 89 87 86 87 87 86 86 86 86 86 86 87 86 85 83 81 78 77 78 82 85 86 84 83 85 87 89 92 93 93 96 96 95 100 103 95 88 89 89 87 92 98 101 101 100 100 102 105 107 108 108 110 111
97 95 91 90 90 91 89 85 85 84 82 81 80 78 78 78 75 75 78 81 83 85 86 86 86 88 89 89 89 89 90 90 90 90 88 86 84 83 85 86 85 85 86 86 87 87 86 85 83 83 83 81 79 81 85 88 88 86 84 86 88 91 94 95 96 98 98 99 100 97 96 94 91 90 94 100 106 107 105 103 104 107 110 112 111 112 113 114
102 99 94 91 91 92 90 89 90 89 87 86 86 83 80 79 76 76 78 77 78 81 84 84 85 86 86 86 88 89 89 90 91 88 84 83 84 85 86 87 87 87 87 88 88 88 87 84 81 83 86 86 84 85 88 89 89 87 85 86 89 91 93 96 99 100 101 104 100 94 98 97 90 94 104 109 111 109 107 107 110 113 115 115 115 116 117 117
106 102 97 94 95 94 91 91 92 92 92 93 92 88 83 82 79 77 77 77 78 82 83 82 82 83 83 86 90 91 89 89 90 86 84 86 89 89 89 88 89 89 89 89 88 88 88 85 82 85 89 89 88 89 92 93 92 89 87 88 90 92 94 98 101 101 103 107 101 95 100 99 92 100 112 114 111 110 110 113 116 117 118 118 118 120 119 119
108 103 100 100 100 96 91 91 94 98 99 99 96 91 86 84 81 80 80 82 83 84 84 83 82 83 85 90 93 92 89 89 89 88 89 93 94 93 92 90 91 90 90 90 89 90 91 87 85 89 92 91 91 93 96 98 96 92 88 89 92 96 98 100 101 101 106 109 103 98 101 99 98 107 115 113 112 113 115 119 120 119 120 120 121 121 120 122
111 106 104 105 105 101 96 95 99 102 102 101 99 95 89 86 84 84 86 88 88 86 88 88 85 85 90 93 95 93 89 89 91 93 95 97 97 96 95 93 93 92 92 93 92 94 94 90 88 92 95 93 93 96 100 100 99 95 89 89 94 99 101 103 104 106 108 108 104 103 104 100 102 110 113 112 114 117 119 121 121 121 122 122 123 123 123 125
114 110 109 110 109 107 104 102 102 102 101 101 100 94 89 89 88 88 91 94 92 90 92 91 88 89 95 97 97 93 87 90 97 98 98 100 100 98 96 95 95 95 95 96 96 97 98 95 94 97 99 96 95 99 101 101 101 97 88 88 96 102 104 107 109 109 109 108 107 108 107 103 104 109 112 114 118 121 122 123 123 123 124 124 125 125 126 127
118 116 116 116 114 110 109 108 107 105 103 101 97 90 88 88 86 90 96 97 93 93 94 94 92 95 100 101 97 91 87 94 102 101 101 103 102 99 98 97 97 97 98 97 98 99 100 100 99 103 104 101 99 101 102 103 104 97 88 90 99 103 105 108 110 109 109 110 110 110 108 106 108 112 115 118 122 123 124 126 126 126 127 127 127 127 128 128
122 122 121 120 119 117 116 114 113 111 105 99 96 95 94 91 89 93 100 97 92 94 96 96 97 100 103 101 95 91 93 100 105 103 103 104 102 101 100 99 99 100 100 100 100 101 101 102 102 105 107 105 103 104 105 107 104 95 89 92 98 100 103 106 107 107 108 109 110 109 109 110 113 116 118 120 122 124 126 127 128 128 129 129 129 129 130 130
Wind_Direction
229 228 228 228 228 230 232 234 235 236 237 239 242 246 248 248 249 252 255 258 260 262 265 269 275 281 288 294 299 303 307 311 315 318 321 323 323 322 322 324 327 331 334 335 335 336 336 336 335 333 333 332 330 326 324 321 317 313 310 308 308 309 309 304 298 296 296 298 302 302 306 311 310 307 308 312 313 313 315 317 319 323 325 325 326 328 330 331
231 229 229 229 229 230 232 234 236 237 237 238 240 244 247 248 248 249 252 255 257 260 263 267 272 278 284 289 295 299 303 307 311 315 319 321 321 321 320 320 323 328 332 333 334 335 336 335 334 333 332 332 330 327 327 325 321 317 312 309 308 309 309 307 304 300 298 298 300 302 304 308 309 307 307 310 311 311 314 316 319 322 324 325 326 328 329 330
233 231 230 230 230 231 232 234 236 237 238 238 240 242 245 248 248 249 250 253 255 258 261 264 269 274 280 285 290 294 298 302 307 311 315 318 319 318 317 317 319 324 329 331 332 333 334 334 334 333 333 333 332 330 331 332 330 325 320 314 312 314 313 311 309 308 304 300 299 300 302 304 307 307 306 307 307 309 313 315 318 321 322 324 326 328 328 329
236 233 231 230 230 231 232 233 235 237 238 239 240 242 244 246 249 249 250 251 254 257 259 263 266 270 275 281 286 289 293 298 303 307 312 315 316 315 315 314 316 321 326 328 329 331 333 334 333 332 333 334 332 331 332 334 335 336 331 324 321 322 320 317 315 314 311 304 299 298 299 303 307 306 304 304 306 310 313 315 317 320 322 324 326 326 325 325
239 235 233 231 230 231 232 233 235 236 237 239 240 242 244 245 248 249 250 251 253 255 257 261 264 268 272 276 281 285 290 294 299 304 309 312 314 315 314 313 314 318 323 325 326 329 330 331 329 329 330 332 331 329 331 332 335 338 339 335 332 332 329 325 322 319 317 310 303 299 298 301 305 306 304 304 307 311 313 315 318 320 322 323 323 323 323 323
242 238 235 233 231 231 231 233 234 235 237 238 240 241 243 245 246 248 251 252 253 254 256 259 263 265 269 273 277 281 286 292 297 302 306 310 312 314 314 313 313 316 320 322 324 325 327 326 324 323 325 329 330 328 328 330 332 335 337 337 336 335 333 330 327 324 321 316 309 303 300 301 305 307 305 305 309 312 315 316 319 321 321 322 322 322 323 323
244 241 238 235 232 232 231 232 234 235 236 238 239 241 242 244 246 247 249 252 254 255 256 258 261 264 266 270 275 279 284 289 294 299 304 307 310 312 313 312 312 314 317 320 321 322 324 324 321 321 322 325 327 327 326 327 329 331 333 335 336 336 334 332 331 330 327 323 318 311 306 304 306 307 307 308 312 315 316 317 319 321 322 322 322 324 325 325
246 244 241 237 234 233 232 232 233 234 236 237 239 240 242 243 245 247 248 251 253 255 257 259 261 264 266 269 273 277 282 287 292 297 301 305 308 310 311 311 312 313 315 317 319 321 323 322 320 319 320 321 322 323 323 324 324 326 328 330 333 334 334 334 334 335 333 330 324 318 312 309 309 310 310 312 315 316 316 317 318 321 323 323 324 326 326 325
248 245 243 240 237 235 234 233 233 234 235 237 238 239 241 243 245 246 247 249 252 255 258 260 261 264 266 269 272 276 282 286 291 295 299 303 306 309 309 309 310 311 313 315 317 320 321 321 319 318 319 318 318 319 319 320 319 320 321 323 326 328 329 330 331 332 331 329 325 319 315 312 312 312 313 313 313 314 314 314 315 319 322 323 323 324 324 323
249 247 245 243 240 238 236 235 235 235 236 237 238 239 241 243 245 246 248 249 252 255 258 260 261 264 267 270 273 277 282 286 291 294 298 301 305 306 306 307 309 311 312 314 315 318 320 319 317 316 317 317 316 315 314 314 314 314 313 315 318 320 321 322 323 323 323 322 321 318 313 311 311 311 311 311 310 311 311 311 313 317 319 320 321 322 322 321
251 249 247 245 243 241 239 238 237 236 236 237 238 239 240 242 244 246 248 249 251 254 258 260 262 264 267 271 275 279 282 287 290 293 297 300 303 304 304 305 308 310 311 312 314 316 318 319 316 314 316 316 314 312 311 310 310 310 308 308 309 312 314 315 316 316 316 316 316 314 308 308 310 309 309 308 307 308 309 309 312 314 315 317 319 319 320 320
254 252 249 247 245 244 243 241 240 239 238 238 239 240 241 242 244 246 248 250 251 254 258 261 262 264 267 270 275 280 283 287 290 293 296 299 301 302 303 305 307 309 310 311 314 316 318 318 314 312 314 315 313 310 308 308 308 308 306 305 305 307 308 309 310 310 312 312 312 311 305 305 310 309 308 306 304 306 306 308 310 311 313 315 316 317 319 320
256 255 253 250 248 247 246 245 243 242 241 241 240 241 242 243 244 246 248 250 252 254 258 261 263 265 267 270 274 280 284 287 289 292 295 298 301 302 303 304 306 308 309 311 313 315 316 316 313 311 313 314 313 310 309 307 306 304 304 305 305 306 305 305 306 306 307 307 307 309 304 302 308 308 307 306 305 306 307 308 310 311 313 313 314 316 318 319
257 257 256 254 251 250 249 248 247 246 245 244 243 243 243 244 245 246 248 251 253 255 258 261 264 267 269 271 274 279 283 287 289 291 295 297 300 302 303 303 305 307 308 310 313 314 314 315 312 311 312 313 313 312 310 307 304 303 302 303 304 304 304 305 306 306 307 307 307 309 306 304 307 308 308 309 308 308 309 310 312 313 314 314 314 315 316 318
258 258 258 256 254 252 252 251 250 249 248 247 246 245 245 245 246 247 248 251 253 256 258 261 264 268 271 272 275 279 283 286 289 291 294 296 298 300 301 302 304 306 307 310 313 313 313 313 311 310 312 313 313 312 310 308 307 306 305 305 304 304 304 305 306 307 308 308 308 310 309 307 309 310 311 312 311 311 311 312 313 314 314 314 315 315 317 319
259 259 258 258 257 255 254 253 253 252 252 251 250 248 248 248 248 248 249 251 253 257 260 262 265 269 272 274 277 280 283 286 289 291 293 295 296 298 299 301 303 304 305 309 311 311 311 311 310 309 311 312 312 310 309 310 310 310 308 308 308 307 307 307 307 308 309 309 308 310 310 309 309 310 311 312 311 311 311 312 313 312 313 315 316 316 318 319
261 260 259 259 258 257 256 255 254 254 254 254 253 251 250 250 250 250 250 252 254 257 261 264 267 270 273 276 278 281 283 286 288 290 292 294 294 295 298 299 301 302 303 307 309 309 309 309 309 308 309 310 310 309 310 311 313 314 312 311 310 310 310 310 310 309 309 308 306 308 309 307 306 307 308 309 308 307 308 310 311 311 314 315 316 316 318 318
261 261 260 260 259 259 258 258 256 256 256 256 255 254 253 252 253 252 252 253 255 258 261 265 268 271 274 276 279 281 283 286 288 290 291 293 293 294 296 297 298 299 300 304 307 307 307 308 308 307 308 309 309 310 310 310 313 315 315 313 312 314 313 312 312 311 310 309 306 307 307 304 303 305 307 306 304 304 306 309 310 313 314 315 315 316 316 316
262 262 262 261 260 260 260 259 259 258 258 257 257 256 254 254 254 254 255 255 256 258 261 265 267 271 274 277 279 281 283 286 288 289 291 292 293 293 294 295 296 296 297 302 305 306 306 306 306 306 307 308 308 310 310 308 310 312 313 311 309 312 313 312 312 312 312 311 308 308 308 306 306 308 309 307 304 305 306 308 310 312 312 313 314 314 314 314
263 262 263 263 262 262 261 261 261 260 259 258 257 257 255 255 255 255 256 257 258 260 262 265 268 271 273 276 279 281 283 285 288 289 290 291 292 292 292 293 294 294 296 300 304 304 304 305 305 305 306 307 307 308 308 307 307 309 310 308 306 306 308 309 310 311 312 311 310 310 311 309 309 311 311 307 306 306 306 307 309 309 309 311 312 312 312 313
265 263 263 263 263 263 263 263 262 262 261 260 258 257 256 256 256 256 257 259 259 261 263 266 268 271 273 276 278 281 283 286 288 289 289 290 290 291 291 291 292 293 294 299 302 302 302 303 303 302 304 305 305 305 305 305 304 305 306 305 304 303 304 305 307 309 309 309 310 310 311 310 311 311 309 306 306 304 305 307 307 307 309 310 311 311 312 312
268 266 264 262 262 262 263 263 263 263 262 261 260 258 256 256 256 257 258 259 261 262 264 267 269 271 273 275 278 281 283 286 287 287 287 288 289 289 289 290 291 292 294 299 301 301 301 302 301 300 301 302 302 302 302 302 302 302 302 302 303 302 303 304 307 309 310 310 311 312 314 314 313 311 307 306 305 303 305 306 306 307 309 311 311 311 311 312
270 269 267 264 262 261 262 262 263 263 262 262 260 259 257 256 256 257 258 260 263 265 266 268 269 271 273 275 278 280 283 285 286 285 286 287 287 287 288 290 290 291 294 299 301 299 300 301 300 299 300 300 300 299 299 300 300 299 300 301 302 303 304 304 306 310 310 311 310 309 315 319 316 312 308 306 305 304 307 307 307 309 310 311 311 311 311 311
272 270 268 267 265 263 262 262 262 262 262 262 261 260 258 257 257 257 258 260 262 266 268 270 271 272 273 275 278 280 282 283 283 284 285 286 286 287 288 289 290 290 294 298 299 298 298 300 299 298 298 298 297 297 297 298 298 298 299 300 302 305 305 304 304 307 309 310 308 305 309 321 320 315 311 309 307 307 309 308 308 309 309 310 310 310 311 312
272 271 270 268 267 265 264 263 263 262 262 262 261 260 259 258 257 258 259 260 262 265 268 272 274 275 276 278 279 281 282 283 283 284 285 286 286 287 287 289 289 290 294 297 297 297 297 298 297 296 297 296 296 296 296 296 296 297 297 299 301 303 305 306 305 306 307 310 310 305 304 315 318 315 312 310 308 308 308 307 307 307 308 310 310 310 312 312
269 270 271 270 268 266 265 264 263 262 262 262 261 260 259 258 258 259 260 261 263 265 268 271 274 275 278 279 280 282 283 283 283 284 285 286 287 287 288 288 288 291 294 295 295 294 295 296 296 295 295 295 295 296 295 295 295 295 296 297 300 301 304 305 305 307 307 311 313 307 305 310 314 314 312 308 308 308 306 305 306 307 308 309 310 311 312 312
268 268 269 270 270 268 266 265 264 263 262 261 261 260 259 259 259 259 261 262 265 267 268 271 272 274 277 278 280 282 282 283 283 284 285 286 287 287 287 287 288 290 292 293 293 292 292 294 293 293 294 294 295 295 295 295 295 295 295 296 298 300 303 304 306 307 307 311 314 308 308 311 315 315 310 308 310 309 306 305 306 307 309 310 310 311 311 311
267 267 267 268 269 269 267 265 264 264 262 261 261 260 259 259 259 261 262 264 266 268 269 270 272 274 276 277 279 281 282 283 283 284 285 286 287 286 286 286 288 290 291 292 291 291 291 292 292 292 292 293 294 294 295 295 295 295 295 297 298 300 302 303 306 307 307 310 311 309 310 313 317 316 308 308 310 308 306 306 307 308 309 310 310 310 310 310
265 266 266 267 267 268 267 267 266 265 264 262 261 261 261 261 261 263 264 266 268 269 269 270 272 274 275 276 278 280 282 282 283 284 285 286 286 286 285 286 288 290 290 290 290 290 290 290 290 291 291 292 293 293 294 294 295 296 297 297 298 300 302 303 305 306 307 311 310 309 311 312 316 315 308 309 310 307 306 306 307 309 309 309 309 309 310 310
264 264 265 265 266 267 266 266 266 266 265 264 263 263 263 263 264 265 267 270 269 267 268 270 271 273 274 277 279 280 281 282 283 283 284 285 285 285 285 286 287 288 288 289 288 288 289 289 289 290 290 291 292 293 293 295 296 296 296 296 297 299 300 301 304 305 307 311 310 310 312 311 314 313 308 309 309 306 305 306 308 309 308 308 308 310 310 310
264 263 263 264 265 266 265 265 265 265 265 265 264 264 264 264 265 267 270 270 268 267 268 269 270 272 274 276 279 279 280 280 281 282 283 283 284 284 285 285 285 285 286 287 286 287 288 288 288 289 290 290 292 292 293 294 295 295 295 295 296 297 297 299 302 303 306 310 309 309 310 309 312 311 308 308 306 304 304 306 307 308 307 308 309 310 310 310
262 262 263 263 263 264 264 264 264 264 264 264 264 264 264 264 265 269 271 268 266 266 266 267 269 271 272 273 275 276 277 278 279 280 280 281 282 283 284 284 284 283 284 284 285 286 287 288 289 289 290 291 292 292 293 293 294 294 294 295 296 296 295 298 300 301 306 308 307 308 307 308 310 309 308 307 304 303 305 306 307 307 307 309 310 311 310 311
261 262 262 262 262 263 263 263 262 263 262 262 263 263 263 263 265 269 269 267 266 264 264 266 267 267 268 271 272 273 274 275 276 277 278 278 280 281 282 283 283 283 282 282 283 284 286 288 290 290 292 293 293 293 293 294 294 294 294 295 296 296 296 298 299 301 304 305 306 306 306 308 309 308 309 306 303 304 307 308 308 308 308 309 311 311 311 311
262 262 262 262 262 262 262 262 261 262 262 262 262 261 262 263 265 266 267 268 267 266 265 265 265 265 267 269 270 271 272 272 274 275 276 277 278 279 281 282 282 283 284 284 284 284 285 287 289 291 293 293 294 294 293 294 294 294 295 296 296 296 297 298 299 301 302 303 305 305 306 308 309 309 309 305 304 307 308 308 309 309 309 310 311 311 312 312
263 263 263 263 263 263 262 262 261 261 261 261 261 260 261 263 265 265 266 268 269 268 266 265 265 266 267 268 269 270 271 271 272 273 275 276 277 280 282 282 283 285 285 286 286 286 286 287 288 290 291 292 292 292 293 293 293 293 295 295 294 295 296 297 299 301 301 302 304 304 305 307 308 309 308 305 306 306 306 307 309 309 310 311 311 312 312 313
262 262 263 264 264 263 263 263 262 262 261 261 261 261 262 263 264 265 266 267 268 268 267 267 267 267 267 267 268 270 271 272 273 274 275 277 279 282 283 283 284 285 286 286 287 287 287 287 287 288 289 290 290 291 292 292 292 294 294 294 294 294 295 297 300 301 301 301 303 303 304 307 307 308 307 305 304 304 304 307 308 309 310 311 311 312 313 313
264 263 263 263 264 264 264 264 263 263 263 262 262 264 264 263 264 266 266 266 266 267 267 268 268 268 268 268 269 270 272 273 275 276 277 278 280 282 283 283 283 284 285 285 286 287 287 286 286 287 288 288 290 291 292 292 293 294 294 294 294 295 297 298 299 300 300 300 302 303 304 306 307 308 307 303 301 302 306 308 308 308 310 311 311 312 313 314
267 267 265 264 264 264 264 263 263 263 263 264 265 266 265 265 266 267 267 267 267 268 268 269 269 269 270 271 271 272 272 274 275 276 277 279 281 282 281 281 282 283 284 285 285 286 286 286 285 286 287 289 291 291 292 293 294 294 294 295 295 296 298 298 299 299 300 300 302 303 304 306 308 310 306 301 301 305 307 307 307 309 311 311 311 312 314 314
268 269 269 267 265 264 264 263 263 263 264 265 267 266 266 266 266 267 268 269 269 270 270 271 271 271 272 272 273 273 274 274 275 276 277 279 281 281 280 281 281 282 283 283 284 285 285 285 284 285 287 289 291 291 293 295 295 295 295 295 296 297 297 297 298 299 300 301 303 304 303 306 312 310 303 301 304 307 306 306 308 310 312 312 312 313 314 314
266 267 268 269 269 267 266 264 264 265 266 267 267 267 267 266 266 267 269 270 270 271 271 271 272 273 274 273 274 274 274 274 275 277 278 280 280 280 280 280 281 282 282 283 284 285 285 285 285 286 287 289 290 292 294 295 295 295 295 295 297 296 296 297 297 299 301 302 304 304 302 310 316 307 301 304 308 307 305 306 310 312 312 312 312 313 314 314
265 265 266 267 268 269 268 268 269 270 270 270 271 270 268 266 265 266 268 269 270 271 271 271 272 273 273 273 274 274 274 275 276 277 278 279 280 280 280 280 281 282 283 284 285 285 285 286 287 288 289 289 291 292 293 294 294 294 295 296 297 296 297 297 297 300 301 302 306 303 302 314 316 304 304 310 309 306 305 308 312 312 311 311 312 313 314 315
266 266 265 264 265 267 269 270 272 273 273 274 274 272 269 267 267 267 268 269 270 271 271 271 271 272 272 273 274 274 274 275 276 277 279 279 279 280 281 282 283 283 284 285 286 287 287 288 289 289 290 290 291 292 293 293 292 292 294 296 296 296 297 297 298 300 301 304 305 300 303 315 312 304 309 312 307 305 305 309 312 311 310 311 312 314 315 315
268 268 266 264 264 265 267 269 271 272 272 272 271 270 271 271 271 270 270 270 270 271 271 271 271 272 273 273 274 274 276 276 277 278 278 278 279 280 282 283 284 284 285 287 288 288 289 289 290 290 290 291 292 293 292 291 291 292 294 295 295 296 297 297 298 299 301 304 301 298 305 314 308 306 312 310 305 304 306 311 312 310 310 312 313 314 315 315
267 267 267 267 267 267 268 269 270 269 269 268 268 268 270 271 272 272 272 271 271 272 272 273 274 274 274 274 275 276 277 277 277 277 277 278 280 281 282 283 283 285 286 287 288 288 288 289 290 290 290 290 291 292 291 290 290 292 293 294 295 296 296 296 297 299 301 300 297 300 308 310 306 310 313 307 304 305 309 312 311 310 311 313 313 314 314 315
266 266 267 268 269 269 270 271 270 269 268 267 266 265 266 267 268 269 270 270 272 273 274 274 274 273 274 274 275 275 275 275 275 275 276 278 280 281 281 281 283 284 285 286 287 287 287 288 290 291 290 290 291 291 290 289 289 291 292 294 295 296 296 297 298 298 299 298 298 305 309 306 308 313 310 305 305 307 311 312 310 311 312 313 314 315 314 315
264 265 267 269 270 270 271 271 271 270 270 269 267 265 264 264 265 266 267 268 270 272 272 272 272 272 273 274 274 274 274 274 275 276 278 280 280 280 280 281 282 283 284 285 285 285 286 287 289 290 289 290 292 291 290 290 290 291 293 295 296 297 298 299 298 298 299 298 301 307 307 305 311 313 308 305 307 310 312 312 311 312 313 314 315 314 315 316
264 266 268 269 269 269 269 270 272 272 272 269 267 265 265 265 266 267 268 268 268 268 269 270 271 273 274 274 274 274 274 276 277 279 281 280 280 279 279 280 282 282 283 283 284 285 285 286 288 288 288 289 290 290 290 290 291 293 295 297 298 299 300 299 297 298 300 300 303 307 305 306 312 311 306 306 309 311 312 311 312 312 313 315 315 314 315 316
264 265 266 267 268 269 270 270 271 270 269 268 267 267 267 268 269 270 270 268 268 268 269 269 269 271 272 272 273 273 274 276 278 280 280 279 279 279 279 280 281 282 282 283 284 284 285 286 288 287 287 288 289 290 290 290 292 293 295 299 301 300 298 297 297 300 300 300 303 305 304 307 312 309 305 307 310 312 311 311 311 312 313 314 314 314 315 315
265 265 266 266 267 268 268 267 267 268 268 269 270 270 271 271 271 271 271 270 269 269 269 269 269 270 271 271 272 272 274 277 278 277 277 277 278 278 279 280 281 281 282 283 284 285 285 287 287 286 286 288 289 289 289 290 292 293 297 301 301 298 297 298 299 300 299 300 303 303 303 308 310 306 305 309 311 310 310 311 311 312 313 313 313 314 315 315
266 266 266 265 265 265 266 266 267 268 269 270 270 271 273 274 272 272 271 270 269 270 271 272 273 273 271 271 271 273 275 277 276 275 275 276 276 278 279 280 281 281 282 283 284 285 286 287 287 287 287 288 288 288 289 290 291 293 300 301 297 296 298 299 299 299 299 301 302 303 304 307 307 305 306 309 309 309 309 310 311 312 312 313 313 314 315 315
266 266 265 265 266 266 266 265 266 266 266 268 270 272 273 272 272 272 270 269 271 272 273 273 273 271 270 271 273 277 278 276 274 274 274 274 276 278 279 281 281 281 282 283 284 285 286 287 288 288 288 288 288 287 288 289 290 295 300 298 295 297 299 298 297 299 300 301 302 303 305 306 306 305 307 307 307 308 309 309 311 311 312 312 313 314 315 316
265 266 266 266 266 265 265 264 264 265 266 268 270 271 270 270 271 271 270 271 272 273 272 272 271 270 271 273 277 278 276 272 272 273 274 275 277 278 279 280 281 281 282 283 284 286 287 288 288 288 288 288 288 288 288 288 291 297 298 296 296 298 297 296 297 299 301 302 302 303 305 305 306 306 306 306 307 308 308 309 310 310 311 312 314 315 316 317
Height
10858 10858 10859 10859 10859 10860 10860 10861 10862 10862 10863 10863 10863 10863 10863 10862 10862 10862 10861 10861 10860 10860 10860 10859 10858 10858 10857 10856 10855 10854 10853 10852 10851 10850 10848 10846 10844 10842 10840 10839 10837 10836 10835 10833 10831 10830 10828 10826 10825 10823 10821 10820 10817 10814 10811 10809 10806 10804 10802 10802 10801 10801 10800 10799 10799 10800 10800 10799 10797 10794 10793 10795 10794 10791 10788 10786 10784 10781 10779 10777 10776 10775 10774 10773 10772 10770 10768 10766
10855 10856 10856 10856 10857 10857 10858 10858 10859 10859 10860 10860 10860 10860 10860 10860 10860 10859 10859 10858 10858 10858 10858 10857 10857 10856 10855 10855 10854 10853 10852 10851 10850 10849 10847 10845 10843 10841 10839 10837 10835 10834 10832 10831 10829 10827 10825 10823 10822 10821 10819 10818 10816 10813 10810 10807 10805 10802 10800 10799 10798 10798 10797 10795 10795 10796 10797 10797 10795 10792 10790 10791 10792 10790 10787 10785 10782 10780 10778 10776 10774 10773 10771 10770 10768 10767 10765 10763
10853 10853 10853 10853 10854 10854 10855 10855 10856 10856 10857 10857 10857 10857 10857 10857 10857 10857 10856 10856 10856 10855 10855 10855 10855 10854 10853 10853 10852 10851 10850 10849 10848 10847 10846 10844 10842 10840 10838 10835 10834 10832 10831 10829 10828 10826 10824 10821 10819 10817 10815 10814 10812 10809 10807 10805 10803 10801 10798 10797 10796 10796 10794 10792 10792 10793 10793 10793 10793 10790 10788 10788 10789 10788 10786 10783 10780 10778 10776 10774 10772 10771 10769 10768 10766 10763 10762 10760
10850 10850 10850 10850 10851 10851 10852 10852 10853 10853 10853 10854 10854 10854 10854 10854 10854 10854 10854 10853 10853 10853 10853 10852 10852 10852 10851 10851 10850 10849 10848 10847 10846 10845 10844 10842 10840 10838 10836 10834 10832 10831 10830 10828 10826 10825 10823 10820 10817 10815 10813 10811 10809 10806 10804 10802 10801 10799 10797 10795 10794 10794 10792 10790 10790 10789 10790 10790 10789 10788 10785 10785 10786 10786 10785 10782 10779 10777 10775 10772 10771 10769 10767 10766 10764 10762 10760 10758
10847 10847 10847 10847 10847 10848 10848 10849 10849 10850 10850 10850 10851 10851 10851 10851 10851 10851 10851 10851 10850 10850 10850 10850 10850 10850 10849 10848 10848 10847 10846 10846 10845 10843 10842 10841 10839 10836 10834 10832 10830 10829 10828 10826 10824 10823 10822 10820 10818 10815 10812 10810 10808 10804 10802 10800 10798 10797 10796 10794 10793 10792 10791 10789 10788 10787 10787 10786 10786 10785 10783 10781 10782 10782 10781 10779 10777 10775 10773 10770 10768 10767 10765 10764 10762 10760 10758 10756
10844 10844 10844 10843 10844 10844 10844 10845 10846 10846 10847 10847 10847 10848 10848 10848 10848 10848 10848 10847 10847 10847 10847 10847 10847 10847 10847 10846 10845 10845 10844 10843 10842 10841 10840 10838 10836 10834 10832 10830 10828 10827 10825 10824 10822 10821 10820 10819 10818 10815 10812 10809 10807 10803 10800 10797 10795 10794 10793 10792 10791 10789 10788 10787 10786 10785 10785 10784 10783 10782 10780 10778 10778 10778 10777 10775 10774 10772 10770 10767 10766 10764 10763 10761 10759 10757 10755 10753
10840 10840 10840 10840 10840 10840 10841 10841 10842 10842 10843 10843 10844 10844 10844 10844 10844 10845 10845 10844 10844 10844 10844 10844 10844 10844 10844 10844 10843 10842 10842 10841 10840 10839 10838 10836 10834 10832 10830 10828 10826 10824 10823 10821 10820 10818 10817 10816 10816 10814 10811 10808 10805 10802 10799 10796 10794 10792 10790 10789 10788 10787 10786 10784 10784 10783 10783 10782 10780 10779 10777 10775 10775 10774 10772 10770 10770 10768 10766 10764 10762 10761 10759 10758 10756 10754 10752 10749
10836 10836 10836 10837 10836 10836 10837 10837 10838 10838 10839 10840 10840 10840 10841 10841 10841 10841 10842 10841 10841 10841 10841 10841 10841 10841 10841 10841 10840 10840 10839 10838 10837 10836 10835 10834 10832 10830 10827 10825 10824 10822 10820 10819 10817 10815 10813 10812 10812 10811 10809 10806 10804 10802 10799 10795 10793 10790 10788 10787 10786 10784 10783 10782 10781 10781 10780 10779 10778 10777 10775 10773 10771 10769 10767 10765 10764 10763 10761 10760 10758 10757 10755 10753 10752 10750 10747 10745
10832 10832 10833 10833 10833 10833 10833 10833 10834 10834 10835 10835 10836 10837 10837 10837 10837 10838 10838 10838 10838 10838 10838 10838 10838 10838 10838 10838 10838 10837 10836 10835 10834 10833 10832 10831 10829 10827 10825 10823 10821 10820 10818 10816 10814 10812 10810 10808 10807 10807 10806 10804 10802 10800 10798 10795 10792 10790 10787 10785 10784 10783 10782 10780 10779 10778 10778 10777 10776 10774 10773 10770 10768 10765 10763 10760 10759 10758 10757 10755 10754 10753 10751 10749 10747 10744 10743 10741
10828 10828 10829 10829 10829 10830 10829 10830 10830 10830 10831 10831 10832 10833 10833 10833 10834 10834 10835 10835 10835 10835 10835 10835 10835 10835 10835 10834 10834 10834 10833 10832 10832 10830 10830 10828 10827 10825 10822 10820 10819 10817 10815 10813 10811 10810 10808 10806 10804 10802 10802 10801 10799 10797 10795 10793 10791 10789 10786 10784 10782 10781 10779 10778 10777 10776 10775 10774 10774 10772 10770 10767 10765 10762 10760 10757 10755 10753 10752 10750 10749 10748 10746 10744 10742 10739 10737 10735
10824 10824 10825 10825 10826 10826 10826 10826 10826 10827 10827 10827 10828 10829 10830 10830 10830 10831 10831 10832 10832 10832 10832 10832 10832 10832 10832 10831 10831 10831 10830 10829 10828 10827 10826 10825 10823 10821 10819 10817 10816 10814 10813 10811 10809 10807 10805 10803 10800 10799 10798 10797 10795 10794 10792 10791 10789 10787 10784 10782 10780 10779 10777 10776 10775 10774 10773 10772 10771 10770 10767 10764 10763 10760 10758 10755 10751 10749 10747 10745 10744 10742 10740 10738 10736 10734 10732 10729
10821 10821 10821 10821 10822 10822 10822 10822 10822 10823 10823 10824 10824 10825 10826 10827 10827 10828 10828 10828 10829 10829 10829 10828 10829 10829 10829 10828 10828 10827 10827 10826 10825 10824 10823 10822 10820 10818 10816 10814 10812 10811 10809 10808 10806 10804 10802 10800 10798 10795 10794 10793 10792 10791 10789 10787 10785 10784 10782 10779 10777 10776 10774 10773 10772 10771 10770 10769 10769 10768 10764 10761 10761 10758 10756 10753 10749 10746 10744 10742 10740 10738 10736 10733 10731 10728 10726 10724
10817 10818 10818 10818 10818 10818 10819 10819 10819 10819 10819 10820 10820 10821 10822 10823 10824 10824 10824 10825 10825 10826 10826 10825 10825 10826 10825 10825 10825 10824 10823 10823 10822 10821 10820 10818 10817 10814 10812 10810 10809 10808 10806 10804 10803 10801 10799 10797 10795 10793 10791 10789 10788 10786 10785 10784 10782 10780 10778 10777 10774 10772 10771 10769 10768 10767 10766 10765 10765 10765 10761 10757 10757 10755 10752 10750 10746 10744 10741 10738 10736 10734 10731 10728 10726 10723 10721 10718
10814 10815 10815 10815 10815 10815 10815 10815 10815 10815 10815 10816 10817 10817 10818 10819 10820 10821 10821 10821 10822 10823 10823 10822 10822 10822 10822 10822 10822 10821 10820 10819 10819 10818 10817 10815 10813 10811 10808 10806 10805 10803 10802 10801 10799 10798 10796 10795 10793 10790 10788 10786 10784 10782 10781 10780 10779 10777 10775 10774 10772 10769 10768 10765 10764 10762 10761 10759 10758 10759 10756 10751 10751 10750 10748 10745 10742 10740 10737 10734 10732 10730 10727 10724 10721 10719 10717 10714
10811 10811 10811 10812 10812 10812 10812 10812 10812 10812 10812 10812 10813 10814 10814 10816 10817 10818 10818 10818 10818 10819 10819 10819 10819 10818 10818 10818 10818 10818 10817 10816 10815 10814 10813 10812 10810 10808 10805 10803 10801 10799 10797 10796 10795 10794 10793 10792 10790 10788 10786 10783 10781 10779 10777 10776 10774 10773 10770 10769 10769 10767 10765 10763 10761 10758 10755 10753 10751 10752 10750 10745 10744 10742 10740 10738 10735 10733 10732 10729 10727 10725 10722 10720 10717 10715 10712 10709
10807 10807 10808 10808 10808 10809 10808 10808 10809 10808 10809 10808 10809 10811 10811 10812 10813 10814 10815 10815 10815 10815 10816 10816 10815 10815 10814 10813 10814 10814 10813 10812 10811 10810 10809 10808 10807 10805 10802 10799 10797 10795 10794 10792 10791 10789 10788 10788 10786 10784 10783 10781 10779 10776 10774 10772 10770 10769 10767 10765 10764 10763 10762 10760 10758 10756 10753 10750 10747 10747 10746 10742 10739 10737 10734 10732 10729 10727 10726 10724 10722 10719 10717 10714 10712 10709 10707 10704
10803 10803 10803 10804 10805 10805 10805 10805 10805 10805 10805 10805 10806 10807 10808 10808 10810 10811 10811 10812 10812 10812 10812 10812 10812 10811 10810 10809 10809 10809 10809 10808 10807 10806 10805 10804 10803 10801 10798 10796 10794 10792 10790 10788 10787 10785 10784 10784 10782 10781 10779 10778 10776 10773 10771 10768 10766 10765 10763 10761 10760 10758 10758 10757 10756 10754 10752 10749 10745 10745 10744 10740 10737 10735 10733 10730 10726 10723 10722 10720 10717 10714 10710 10708 10705 10703 10700 10698
10798 10799 10799 10800 10800 10800 10801 10801 10801 10801 10801 10801 10802 10803 10805 10805 10806 10807 10808 10808 10809 10809 10809 10808 10808 10807 10805 10805 10805 10804 10804 10803 10803 10802 10801 10799 10798 10796 10794 10792 10790 10789 10787 10785 10783 10781 10780 10779 10778 10776 10776 10774 10772 10770 10768 10766 10763 10761 10759 10758 10756 10754 10753 10753 10753 10751 10750 10748 10744 10744 10743 10738 10735 10734 10732 10728 10723 10721 10718 10715 10712 10708 10705 10702 10699 10696 10694 10691
10794 10794 10795 10795 10796 10796 10796 10797 10797 10797 10796 10797 10798 10799 10801 10801 10802 10803 10803 10804 10805 10806 10805 10804 10804 10804 10802 10800 10800 10799 10799 10799 10798 10797 10796 10795 10794 10792 10790 10788 10786 10785 10783 10781 10780 10777 10775 10774 10773 10772 10771 10770 10768 10766 10764 10763 10761 10759 10757 10755 10754 10752 10749 10748 10749 10747 10746 10745 10741 10741 10739 10734 10731 10730 10728 10724 10719 10716 10713 10710 10707 10704 10700 10697 10694 10691 10688 10685
10790 10790 10790 10791 10792 10792 10792 10792 10793 10793 10792 10792 10793 10795 10796 10796 10798 10799 10799 10800 10801 10802 10801 10800 10800 10800 10798 10796 10795 10794 10794 10794 10794 10792 10791 10790 10789 10787 10785 10783 10782 10781 10780 10777 10775 10773 10771 10770 10768 10766 10766 10764 10763 10761 10760 10759 10757 10756 10754 10752 10751 10750 10747 10745 10745 10744 10742 10741 10738 10737 10735 10729 10725 10724 10721 10718 10714 10711 10708 10706 10703 10699 10696 10693 10689 10686 10682 10679
10785 10785 10786 10786 10787 10788 10788 10788 10788 10788 10788 10788 10789 10790 10791 10792 10793 10795 10795 10795 10796 10798 10797 10796 10797 10796 10794 10792 10791 10790 10789 10788 10788 10787 10785 10785 10784 10782 10780 10779 10777 10776 10775 10773 10771 10768 10766 10766 10763 10762 10761 10759 10758 10757 10755 10754 10752 10751 10750 10748 10746 10746 10744 10741 10741 10741 10738 10737 10735 10733 10732 10726 10720 10718 10715 10712 10710 10706 10703 10701 10698 10694 10691 10688 10684 10680 10676 10672
10781 10781 10782 10782 10782 10782 10783 10783 10783 10784 10783 10783 10784 10785 10786 10787 10789 10790 10791 10791 10792 10793 10792 10792 10792 10791 10789 10788 10786 10786 10784 10783 10783 10781 10780 10780 10778 10777 10776 10774 10772 10771 10769 10768 10766 10763 10761 10761 10759 10757 10756 10754 10753 10752 10750 10748 10746 10745 10745 10744 10742 10741 10741 10738 10736 10736 10733 10732 10731 10729 10729 10724 10717 10712 10707 10706 10705 10701 10699 10697 10692 10688 10685 10681 10677 10672 10668 10665
10777 10777 10777 10777 10777 10777 10778 10778 10778 10779 10779 10779 10779 10779 10781 10783 10784 10786 10787 10788 10787 10787 10787 10787 10788 10786 10785 10784 10782 10782 10780 10780 10779 10776 10775 10775 10773 10772 10771 10769 10767 10766 10764 10762 10760 10757 10756 10756 10754 10751 10751 10749 10747 10746 10746 10744 10740 10739 10739 10738 10736 10735 10735 10734 10732 10731 10728 10727 10726 10725 10727 10723 10715 10706 10699 10697 10696 10694 10693 10689 10684 10681 10677 10674 10669 10664 10661 10657
10773 10773 10772 10772 10773 10773 10773 10773 10773 10774 10775 10775 10774 10774 10776 10777 10780 10781 10782 10784 10784 10782 10781 10781 10782 10781 10780 10779 10778 10778 10777 10775 10774 10771 10770 10769 10767 10767 10766 10764 10763 10761 10759 10757 10754 10751 10749 10750 10749 10747 10745 10743 10741 10741 10740 10739 10735 10732 10731 10732 10731 10729 10728 10728 10728 10728 10724 10721 10718 10717 10724 10724 10713 10701 10691 10688 10686 10685 10684 10680 10675 10673 10670 10667 10662 10657 10654 10650
10768 10768 10768 10768 10768 10769 10768 10769 10769 10769 10770 10771 10770 10770 10771 10773 10775 10776 10777 10780 10781 10778 10776 10777 10775 10773 10773 10773 10772 10772 10772 10770 10768 10766 10764 10763 10762 10761 10760 10759 10758 10756 10755 10753 10750 10746 10743 10744 10743 10742 10740 10737 10736 10734 10734 10734 10731 10727 10724 10724 10724 10723 10722 10721 10721 10722 10720 10718 10711 10704 10714 10724 10715 10699 10688 10682 10680 10678 10676 10672 10668 10666 10664 10660 10656 10651 10647 10642
10763 10764 10764 10763 10763 10763 10764 10765 10763 10764 10766 10766 10765 10765 10766 10768 10770 10771 10772 10775 10778 10774 10772 10773 10770 10766 10767 10766 10765 10766 10766 10763 10762 10761 10759 10757 10756 10755 10754 10752 10752 10751 10749 10748 10745 10741 10738 10738 10736 10736 10734 10731 10730 10728 10727 10727 10726 10723 10719 10717 10717 10716 10715 10714 10714 10714 10713 10715 10707 10693 10699 10717 10714 10698 10684 10678 10677 10674 10669 10666 10663 10660 10658 10654 10649 10644 10640 10635
10758 10759 10759 10758 10758 10758 10760 10759 10758 10760 10761 10760 10760 10760 10761 10763 10765 10766 10767 10770 10775 10772 10768 10767 10764 10761 10762 10760 10759 10760 10759 10757 10756 10755 10753 10751 10750 10749 10747 10746 10746 10746 10744 10743 10741 10735 10734 10734 10730 10730 10728 10725 10724 10722 10720 10720 10719 10718 10714 10711 10711 10708 10708 10707 10707 10706 10705 10710 10703 10686 10686 10703 10709 10696 10678 10672 10672 10668 10662 10659 10657 10654 10651 10647 10641 10636 10632 10627
10752 10753 10754 10753 10752 10753 10754 10754 10753 10754 10754 10755 10755 10755 10757 10759 10760 10762 10762 10766 10772 10770 10763 10760 10757 10756 10756 10755 10755 10754 10753 10751 10750 10749 10747 10745 10744 10742 10741 10740 10739 10740 10738 10737 10736 10731 10728 10728 10725 10724 10722 10719 10718 10716 10714 10712 10711 10710 10707 10705 10704 10702 10700 10699 10700 10699 10698 10704 10698 10684 10679 10687 10698 10690 10671 10666 10666 10660 10655 10652 10650 10648 10643 10639 10633 10629 10625 10620
10746 10748 10748 10747 10747 10747 10748 10748 10749 10748 10748 10749 10749 10750 10752 10753 10755 10757 10758 10763 10768 10765 10758 10753 10752 10751 10749 10750 10750 10749 10748 10745 10744 10743 10741 10740 10739 10736 10734 10733 10732 10733 10731 10731 10730 10725 10723 10722 10719 10718 10716 10713 10712 10710 10707 10705 10704 10702 10700 10698 10695 10694 10693 10691 10692 10690 10691 10697 10691 10681 10676 10676 10687 10683 10664 10659 10658 10650 10647 10644 10643 10641 10636 10631 10626 10622 10619 10613
10740 10742 10742 10742 10741 10741 10741 10743 10743 10743 10742 10742 10743 10745 10746 10748 10751 10752 10755 10760 10760 10757 10753 10749 10746 10745 10744 10744 10744 10743 10741 10739 10738 10737 10735 10734 10733 10729 10727 10725 10725 10726 10725 10723 10723 10720 10718 10715 10713 10711 10709 10708 10706 10703 10700 10698 10696 10694 10692 10690 10688 10687 10684 10683 10684 10681 10683 10690 10683 10677 10673 10668 10676 10676 10660 10654 10650 10641 10638 10637 10635 10633 10628 10624 10620 10616 10611 10605
10734 10734 10735 10736 10735 10734 10735 10736 10737 10736 10736 10736 10737 10739 10741 10743 10746 10749 10754 10754 10749 10749 10748 10743 10741 10740 10739 10738 10738 10737 10735 10733 10731 10730 10729 10728 10726 10724 10720 10717 10717 10718 10719 10715 10713 10715 10713 10709 10707 10705 10702 10701 10699 10696 10693 10691 10689 10686 10683 10681 10680 10679 10675 10676 10677 10673 10676 10681 10676 10673 10669 10664 10667 10666 10656 10651 10643 10635 10633 10631 10628 10625 10621 10616 10613 10609 10603 10597
10726 10728 10728 10728 10728 10728 10728 10729 10729 10729 10729 10730 10730 10733 10735 10738 10743 10747 10748 10743 10739 10742 10740 10736 10737 10735 10733 10734 10732 10730 10729 10727 10725 10723 10723 10722 10720 10718 10713 10709 10707 10709 10712 10709 10705 10707 10707 10703 10701 10698 10696 10694 10692 10689 10686 10684 10681 10678 10674 10671 10671 10669 10666 10669 10669 10667 10670 10672 10669 10667 10664 10662 10662 10656 10650 10644 10634 10629 10628 10625 10622 10618 10613 10609 10605 10600 10594 10588
10720 10721 10722 10722 10721 10720 10719 10721 10722 10721 10722 10722 10724 10727 10729 10734 10742 10743 10738 10731 10729 10733 10731 10729 10730 10728 10727 10729 10726 10724 10722 10720 10718 10716 10715 10716 10715 10711 10706 10701 10697 10698 10701 10702 10700 10700 10702 10701 10694 10691 10691 10687 10684 10682 10679 10677 10673 10669 10666 10662 10660 10654 10652 10658 10659 10658 10663 10665 10664 10660 10655 10657 10657 10650 10644 10635 10624 10621 10620 10616 10613 10609 10604 10600 10596 10590 10584 10578
10713 10714 10715 10716 10714 10712 10711 10712 10714 10714 10714 10715 10717 10720 10725 10732 10738 10734 10728 10722 10719 10722 10724 10722 10722 10722 10723 10723 10720 10718 10715 10713 10713 10710 10708 10710 10708 10706 10701 10694 10689 10688 10688 10690 10693 10694 10697 10699 10692 10686 10685 10681 10677 10674 10671 10669 10664 10660 10659 10655 10651 10643 10638 10642 10646 10647 10651 10656 10660 10655 10647 10648 10647 10643 10637 10625 10616 10612 10609 10607 10604 10599 10595 10590 10586 10579 10573 10567
10706 10707 10708 10709 10707 10704 10702 10703 10706 10706 10706 10708 10709 10715 10724 10729 10729 10723 10719 10715 10710 10711 10714 10713 10715 10717 10717 10716 10713 10711 10708 10706 10707 10704 10702 10703 10702 10701 10697 10688 10682 10679 10677 10677 10680 10685 10690 10694 10689 10682 10680 10676 10672 10668 10665 10662 10656 10654 10653 10647 10642 10638 10631 10629 10633 10635 10634 10640 10653 10651 10644 10643 10639 10635 10628 10615 10608 10603 10598 10598 10595 10589 10586 10580 10575 10569 10562 10556
10698 10699 10701 10702 10699 10694 10693 10696 10698 10697 10698 10700 10703 10713 10722 10721 10717 10713 10711 10707 10701 10701 10703 10705 10709 10709 10709 10708 10706 10703 10699 10698 10699 10697 10696 10696 10696 10697 10691 10682 10676 10672 10667 10665 10667 10673 10680 10686 10683 10677 10674 10671 10666 10663 10660 10653 10648 10648 10646 10639 10634 10630 10624 10620 10622 10625 10620 10622 10638 10642 10639 10639 10634 10631 10622 10606 10598 10594 10590 10590 10585 10579 10577 10571 10564 10558 10552 10546
10690 10691 10693 10695 10691 10684 10685 10688 10688 10688 10691 10692 10699 10712 10716 10712 10709 10705 10700 10696 10693 10693 10695 10698 10701 10700 10699 10700 10699 10695 10691 10690 10691 10689 10688 10688 10691 10692 10684 10674 10670 10665 10660 10656 10657 10661 10667 10675 10677 10671 10667 10665 10660 10657 10651 10645 10642 10641 10636 10630 10625 10621 10618 10612 10609 10614 10611 10608 10621 10630 10630 10631 10627 10624 10616 10599 10588 10586 10584 10581 10575 10571 10568 10561 10555 10548 10542 10537
10681 10683 10687 10689 10680 10673 10675 10677 10678 10680 10681 10686 10698 10707 10707 10705 10702 10695 10688 10686 10686 10687 10688 10690 10692 10690 10691 10692 10691 10687 10683 10682 10682 10680 10680 10681 10684 10685 10676 10667 10663 10658 10653 10648 10649 10652 10654 10662 10670 10666 10660 10658 10655 10649 10642 10638 10636 10631 10626 10622 10617 10612 10610 10604 10597 10600 10600 10594 10602 10614 10619 10622 10620 10614 10603 10588 10580 10579 10575 10569 10565 10563 10559 10551 10544 10538 10532 10526
10673 10675 10680 10680 10669 10662 10664 10666 10668 10670 10674 10684 10694 10697 10696 10697 10693 10686 10679 10677 10677 10679 10681 10683 10681 10680 10684 10683 10680 10677 10674 10673 10674 10672 10673 10674 10675 10674 10667 10659 10654 10650 10646 10642 10641 10644 10643 10648 10659 10661 10655 10652 10648 10640 10634 10631 10625 10621 10617 10613 10611 10605 10600 10596 10590 10588 10586 10582 10585 10591 10600 10614 10616 10603 10588 10576 10574 10570 10561 10557 10556 10553 10548 10540 10533 10528 10522 10515
10664 10665 10673 10673 10659 10650 10651 10653 10659 10664 10670 10680 10686 10686 10688 10687 10683 10679 10672 10668 10668 10669 10673 10675 10672 10672 10674 10672 10669 10667 10662 10662 10665 10664 10664 10665 10664 10661 10655 10650 10645 10641 10638 10635 10634 10635 10632 10635 10647 10653 10649 10646 10642 10634 10629 10624 10615 10610 10607 10604 10603 10596 10589 10588 10585 10582 10576 10572 10576 10570 10574 10603 10608 10586 10574 10570 10566 10558 10546 10545 10547 10542 10536 10528 10522 10517 10511 10504
10652 10655 10666 10664 10648 10639 10637 10641 10653 10661 10664 10673 10677 10677 10676 10674 10673 10672 10665 10660 10659 10661 10662 10664 10664 10664 10663 10661 10659 10656 10650 10653 10656 10654 10655 10656 10652 10648 10644 10640 10638 10633 10629 10627 10627 10625 10622 10624 10635 10641 10640 10638 10635 10628 10623 10617 10607 10601 10600 10599 10593 10585 10579 10575 10575 10578 10569 10565 10569 10554 10555 10591 10593 10566 10562 10562 10552 10542 10534 10535 10537 10530 10523 10516 10510 10505 10498 10491
10640 10647 10655 10650 10639 10633 10627 10632 10649 10654 10657 10666 10666 10661 10660 10661 10664 10664 10660 10653 10650 10652 10651 10652 10654 10653 10652 10652 10648 10644 10641 10643 10646 10645 10644 10645 10641 10635 10632 10630 10629 10625 10620 10618 10618 10615 10611 10615 10623 10629 10629 10627 10625 10622 10615 10607 10599 10595 10596 10594 10585 10578 10573 10565 10564 10567 10561 10561 10558 10537 10546 10581 10574 10550 10553 10552 10536 10526 10523 10526 10525 10517 10510 10503 10497 10493 10485 10478
10630 10635 10638 10636 10633 10627 10620 10629 10643 10645 10649 10654 10650 10647 10648 10650 10654 10655 10653 10647 10642 10641 10639 10641 10645 10644 10643 10641 10636 10634 10633 10631 10635 10636 10631 10631 10631 10627 10623 10620 10618 10614 10611 10610 10609 10605 10603 10606 10611 10615 10618 10617 10615 10612 10605 10595 10589 10589 10592 10587 10577 10573 10566 10558 10557 10554 10553 10557 10541 10520 10541 10568 10553 10539 10545 10536 10520 10514 10513 10516 10513 10501 10496 10491 10485 10480 10473 10465
10617 10619 10623 10625 10624 10619 10618 10627 10634 10633 10637 10639 10636 10639 10639 10639 10644 10646 10643 10637 10633 10632 10630 10632 10636 10633 10632 10629 10625 10626 10624 10619 10622 10623 10618 10619 10622 10621 10614 10609 10607 10605 10602 10601 10600 10597 10596 10598 10599 10601 10605 10606 10606 10602 10593 10584 10581 10583 10586 10579 10571 10567 10557 10551 10551 10543 10544 10547 10528 10516 10536 10547 10534 10530 10532 10517 10503 10501 10504 10504 10497 10488 10483 10479 10473 10467 10460 10452
10602 10605 10612 10615 10613 10611 10614 10622 10621 10618 10623 10625 10624 10629 10629 10628 10635 10636 10631 10628 10626 10624 10623 10625 10625 10621 10619 10618 10617 10616 10613 10608 10607 10609 10611 10612 10612 10611 10604 10598 10598 10597 10594 10592 10590 10588 10588 10590 10592 10589 10586 10590 10596 10593 10581 10574 10573 10576 10578 10573 10566 10560 10550 10544 10541 10533 10529 10526 10519 10522 10524 10522 10523 10520 10510 10498 10487 10488 10494 10489 10480 10475 10469 10465 10461 10453 10446 10439
10587 10593 10603 10607 10602 10601 10607 10611 10606 10604 10611 10610 10608 10614 10618 10620 10625 10624 10620 10621 10621 10616 10613 10613 10613 10610 10611 10610 10604 10601 10600 10597 10594 10597 10604 10603 10599 10597 10592 10590 10590 10588 10586 10583 10580 10578 10578 10583 10587 10581 10572 10575 10581 10578 10569 10563 10564 10566 10568 10566 10558 10550 10544 10536 10525 10522 10516 10503 10511 10527 10508 10500 10519 10510 10484 10478 10476 10476 10480 10472 10464 10461 10455 10451 10447 10438 10432 10427
10575 10585 10596 10597 10588 10588 10597 10599 10596 10596 10597 10590 10588 10600 10608 10610 10614 10616 10614 10613 10610 10603 10599 10603 10604 10602 10602 10597 10587 10586 10590 10588 10585 10590 10594 10589 10583 10581 10581 10583 10582 10580 10578 10573 10571 10569 10566 10573 10580 10570 10562 10565 10567 10562 10555 10550 10552 10558 10560 10556 10548 10541 10537 10524 10512 10513 10507 10488 10501 10521 10498 10488 10511 10497 10464 10461 10466 10466 10464 10455 10449 10446 10441 10439 10433 10424 10421 10415
10567 10578 10584 10580 10573 10577 10588 10591 10585 10578 10574 10572 10576 10588 10598 10602 10607 10609 10605 10599 10595 10592 10590 10592 10595 10594 10588 10581 10574 10576 10583 10582 10580 10583 10579 10571 10569 10567 10570 10575 10573 10570 10568 10563 10562 10559 10554 10562 10570 10559 10551 10556 10557 10550 10541 10537 10540 10548 10554 10550 10539 10528 10521 10512 10506 10507 10497 10482 10491 10503 10490 10489 10499 10477 10452 10452 10455 10452 10449 10442 10437 10434 10430 10426 10419 10413 10410 10402
10556 10568 10570 10565 10560 10564 10572 10575 10568 10560 10561 10564 10566 10576 10589 10596 10598 10597 10591 10584 10583 10585 10579 10576 10585 10586 10575 10568 10563 10566 10578 10578 10571 10570 10564 10556 10555 10556 10560 10565 10564 10561 10558 10554 10553 10548 10542 10550 10556 10546 10538 10546 10548 10537 10528 10527 10527 10534 10548 10548 10528 10511 10505 10501 10499 10496 10486 10479 10484 10483 10479 10490 10488 10460 10445 10448 10443 10437 10434 10429 10426 10423 10419 10414 10407 10402 10397 10390
10543 10552 10552 10546 10543 10549 10555 10557 10554 10551 10555 10553 10553 10571 10585 10584 10584 10583 10574 10567 10569 10573 10568 10566 10577 10574 10558 10552 10552 10560 10577 10571 10553 10553 10552 10542 10543 10548 10550 10554 10554 10551 10549 10546 10543 10537 10532 10537 10542 10531 10524 10535 10539 10525 10518 10518 10514 10523 10545 10541 10511 10498 10499 10492 10485 10483 10477 10472 10473 10468 10466 10478 10474 10450 10441 10443 10434 10426 10422 10417 10413 10411 10406 10400 10394 10390 10384 10376
10526 10527 10529 10526 10529 10537 10539 10538 10539 10538 10541 10543 10550 10569 10572 10565 10570 10567 10552 10552 10562 10564 10559 10559 10563 10555 10540 10539 10548 10561 10571 10554 10533 10537 10539 10530 10533 10540 10540 10543 10544 10540 10538 10537 10534 10529 10523 10524 10527 10518 10510 10520 10526 10516 10510 10507 10504 10520 10539 10525 10498 10491 10492 10482 10473 10473 10469 10461 10460 10459 10457 10459 10455 10443 10439 10434 10424 10417 10412 10405 10401 10398 10392 10387 10382 10376 10370 10362
10509 10504 10509 10511 10510 10515 10518 10520 10522 10521 10531 10545 10550 10553 10549 10549 10557 10548 10533 10543 10557 10554 10547 10546 10545 10537 10527 10533 10550 10558 10550 10531 10519 10524 10527 10522 10526 10531 10531 10532 10531 10528 10528 10527 10522 10520 10516 10512 10513 10507 10497 10502 10510 10505 10498 10495 10500 10518 10525 10507 10492 10487 10479 10470 10468 10468 10462 10452 10448 10448 10447 10443 10438 10433 10430 10424 10415 10409 10402 10395 10390 10384 10378 10373 10368 10362 10355 10348